Regional Weather Roundup
Issued by NWS

Home | Current Version | Previous Version | Text Only | Print | Product List | Glossary On
Versions: 1 2 3 4 5 6 7 8 9 10 11 12 13 14 15 16 17 18 19 20 21 22 23 24 25 26 27 28 29 30 31 32 33 34 35 36 37 38 39 40 41 42 43 44 45 46 47 48 49 50
000
ASUS43 KMKX 280411
RWRWI

WISCONSIN REGIONAL WEATHER ROUNDUP
NATIONAL WEATHER SERVICE MILWAUKEE/SULLIVAN WI
1100 PM CDT MON MAR 27 2017

NOTE: "FAIR" INDICATES FEW OR NO CLOUDS BELOW 12,000 FEET WITH NO
SIGNIFICANT WEATHER AND/OR OBSTRUCTIONS TO VISIBILITY.

WIZ001-002-006>008-014>016-023>028-280500-
NORTHWEST WISCONSIN

CITY           SKY/WX    TMP DP  RH WIND       PRES   REMARKS
SUPERIOR ARPT  CLEAR     28  28 100 CALM      30.04S
ASHLAND        FOG       28  27  96 CALM      30.05S VSB 3/4
HAYWARD        CLEAR     34  28  79 N5        30.03R WCI  30
SIREN          CLEAR     37  29  75 CALM      30.03S
CUMBERLAND     CLEAR     37  30  75 NE5       30.02R WCI  34
RICE LAKE      CLEAR     33  32  96 CALM      30.03R
CHETEK         CLEAR     33  33  99 CALM      30.03R
LADYSMITH      CLEAR     37  31  80 NE8       30.03R WCI  31
EAU CLAIRE     CLEAR     34  33  96 CALM      30.01R
MENOMONIE      CLEAR     35  34  94 CALM      30.02R
NEW RICHMOND   CLEAR     35  34  96 CALM      30.02R
OSCEOLA        CLEAR     35  33  89 CALM      30.04S
$$

WIZ003>005-009-010-017-018-280500-
NORTH CENTRAL WISCONSIN

CITY           SKY/WX    TMP DP  RH WIND       PRES   REMARKS
MANITOWISH WTR CLEAR     30  30 100 CALM      30.01S
ARBOR VITAE    CLEAR     34  31  88 CALM      30.00S
WOODRUFF       CLEAR     34  31  88 CALM      30.00S
RHINELANDER    CLEAR     35  31  85 CALM      30.01R
EAGLE RIVER    CLEAR     28  28 100 CALM      30.01R
LAND O LAKES   PTCLDY    31  30  96 CALM      30.02S
PHILLIPS       CLEAR     30  29  94 N3        30.01R
TOMAHAWK       CLEAR     28  27  96 CALM      30.02R
MEDFORD        FOG       31  31  99 CALM      30.00R VSB 1/2
MERRILL        FOG       28  28 100 CALM      30.02R VSB 3/4
$$

WIZ029-030-035-036-043>047-280500-
CENTRAL WISCONSIN

CITY           SKY/WX    TMP DP  RH WIND       PRES   REMARKS
WAUSAU         PTCLDY    33  33 100 CALM      30.00R
MOSINEE        CLEAR     36  36 100 NE3       30.01R
MARSHFIELD     CLEAR     36  34  92 CALM      29.99R
STEVENS POINT  CLOUDY    34  34 100 CALM      30.01R FOG
WAUPACA        CLOUDY    42  41  96 CALM      30.01S
WAUTOMA        CLOUDY    41  40  96 N3        30.02R
WISC RAPIDS    MOCLDY    39  39 100 CALM      30.01S
CAMP DOUGLAS   CLOUDY    41  40  93 CALM      30.01R
$$

WIZ011>013-019>022-031-037>040-048>050-280500-
NORTHEAST WISCONSIN

CITY           SKY/WX    TMP DP  RH WIND       PRES   REMARKS
ANTIGO         CLEAR     32  32 100 NE3       30.01R FOG
SHAWANO        MOCLDY    38  36  89 CALM      30.02R
OCONTO         CLOUDY    36  35  93 CALM      30.02R
STURGEON BAY   CLOUDY    38  36  92 N3        30.00R
GREEN BAY      CLOUDY    39  38  96 CALM      30.01S
MANITOWOC      CLOUDY    38  35  89 CALM      30.02R
APPLETON       CLOUDY    39  37  93 CALM      29.99S
CLINTONVILLE   CLOUDY    39  37  93 CALM      30.02R
OSHKOSH        CLOUDY    40  36  86 NE3       30.00S
$$

WIZ032>034-041-042-053>061-280500-
SOUTHWEST WISCONSIN

CITY           SKY/WX    TMP DP  RH WIND       PRES   REMARKS
LA CROSSE      CLOUDY    44  39  82 NW6       30.01S
SPARTA         CLOUDY    42  39  90 N3        30.02R
VIROQUA        CLOUDY    42  42 100 CALM      30.00R
BOSCOBEL       CLOUDY    47  44  90 N3        30.00R
PRAIRIE DU CHI CLOUDY    45  43  93 NW3       30.01R
PLATTEVILLE    CLOUDY    46  46 100 CALM      29.99S
$$

WIZ056-057-062-063-064-067-068-280500-
SOUTH CENTRAL WISCONSIN

CITY           SKY/WX    TMP DP  RH WIND       PRES   REMARKS
REEDSBURG      CLOUDY    43  43 100 N3        29.99S
BARABOO/DELLS  CLOUDY    43  41  95 NE3       30.00R FOG
LONE ROCK      CLOUDY    47  43  86 N5        30.00R
MINERAL POINT  CLOUDY    46  46 100 CALM      29.98S FOG
MADISON        CLOUDY    44  42  93 NE10      29.99R FOG
MIDDLETON      CLOUDY    46  46 100 E9        30.00R
WATERTOWN      CLOUDY    41  41 100 E3        29.99S
MONROE         CLOUDY    45  43  93 N3        29.98R FOG
JANESVILLE     CLOUDY    46  46 100 CALM      29.98S FOG
$$

WIZ051-052-058>065-066-070>072-280500-
SOUTHEAST WISCONSIN

CITY           SKY/WX    TMP DP  RH WIND       PRES   REMARKS
MILWAUKEE      CLOUDY    39  36  89 N8        30.00R WCI  33
WAUKESHA       CLOUDY    36  34  93 NE3       30.00F FOG
MILWAUKEE/TIMM CLOUDY    36  34  93 NE6       30.01S WCI  31
RACINE         CLOUDY    38  35  89 N7        30.01R WCI  33
KENOSHA        CLOUDY    39  36  89 NE8       29.99R WCI  33
FOND DU LAC    CLOUDY    41  36  82 NE6       30.00S
SHEBOYGAN      CLOUDY    37  34  89 CALM      30.01S
WEST BEND      CLOUDY    37  36  93 NE3       30.00S
JUNEAU         CLOUDY    40  39  96 E5        30.01R FOG
$$

LSZ147-162-280500-
LAKE SUPERIOR

STATION/POSITION TIME  TEMP    WIND        PRES    WAVE
                       AIR SEA DIR/SP/G            HT/PER
                 (UTC) (F)     (DEG/KT/KT) (MB)    (FT/S)
DEVILS ISLAND    0400   37     210/  2/  2 1018.1R
PORT WING        0340   31     130/  2/  4 1017.6R
SAXON HARBOR     0330   29     190/  3/  3 1017.3R
$$

LMZ867-665-643>646-280500-
LAKE MICHIGAN

STATION/POSITION TIME  TEMP    WIND        PRES    WAVE
                       AIR SEA DIR/SP/G            HT/PER
                 (UTC) (F)     (DEG/KT/KT) (MB)    (FT/S)
CHAMBERS ISLAND  0340   34      CALM  /  1 1016.3R
NORTHPORT PIER   0340   36     320/  3/  4 1016.6R
KEWAUNEE LAKESHO 0348   37      CALM  /  2 1015.9R
SHEBOYGAN LAKESH 0400   37     340/  5/  6 1016.5R
PORT WASHINGTON  0330   38     350/  3/  5 1017.3R
MILWAUKEE LAKESH 0350   38     360/  6/  7   N/A
KENOSHA   LAKESH 0400   38      10/ 12/ 13 1015.9
$$

TC  - TEMPERATURE IN CELSIUS
VSB - VISIBILITY IN STATUTE MILES
WCI - WIND CHILL INDEX
HX  - HEAT INDEX





USA.gov is the U.S. government's official web portal to all federal, state and local government web resources and services.